Location: Melizzano
(41.1500°N, 14.5000°E)
Time: 07:07:13
(UTC+00:00)

BREEZE-M DEB (TANK) - Pass Details

Date: 11 May 2021
Orbit: 276 x 16788 km, 49.5° (Epoch: 19 June)

Event Time Altitude Azimuth Distance (km) Brightness Sun altitude
Rises 20:14:57 0° 303° (WNW) 2,124 6.7 -19.7°
Reaches altitude 10° 20:17:21 10° 335° (NNW) 1,106 5.0 -20.0°
Maximum altitude 20:18:36 14° 14° (NNE) 930 3.9 -20.1°
Enters shadow 20:18:55 14° 25° (NNE) 959 3.8 -20.2°
